TimeEDT,TemperatureF,Dew PointF,Humidity,Sea Level PressureIn,VisibilityMPH,Wind Direction,Wind SpeedMPH,Gust SpeedMPH,PrecipitationIn,Events,Conditions,WindDirDegrees,DateUTC
12:53 AM,78.1,73.9,87,30.05,10.0,East,5.8,-,N/A,,Clear,100,2013-09-16 04:53:00
1:53 AM,78.1,73.9,87,30.04,10.0,NE,10.4,-,N/A,,Clear,40,2013-09-16 05:53:00
2:53 AM,77.0,73.9,90,30.05,10.0,East,9.2,-,N/A,,Partly Cloudy,80,2013-09-16 06:53:00
3:53 AM,77.0,73.9,90,30.03,10.0,ENE,5.8,-,N/A,,Clear,70,2013-09-16 07:53:00
4:53 AM,75.9,73.0,91,30.03,10.0,East,5.8,-,N/A,,Clear,100,2013-09-16 08:53:00
5:53 AM,75.9,73.0,91,30.04,10.0,ENE,3.5,-,N/A,,Clear,70,2013-09-16 09:53:00
6:53 AM,75.9,73.0,91,30.04,10.0,NE,5.8,-,N/A,,Clear,50,2013-09-16 10:53:00
7:53 AM,75.9,73.0,91,30.07,10.0,NE,8.1,-,N/A,,Clear,50,2013-09-16 11:53:00
8:53 AM,79.0,73.0,82,30.08,10.0,East,9.2,-,N/A,,Clear,80,2013-09-16 12:53:00
9:53 AM,82.0,73.9,76,30.07,10.0,ENE,8.1,-,N/A,,Clear,70,2013-09-16 13:53:00
10:53 AM,84.0,73.0,69,30.06,10.0,ENE,10.4,-,N/A,,Clear,70,2013-09-16 14:53:00
11:53 AM,87.1,73.0,63,30.06,10.0,East,8.1,-,N/A,,Clear,90,2013-09-16 15:53:00
12:53 PM,89.1,72.0,57,30.05,10.0,ENE,10.4,-,N/A,,Partly Cloudy,70,2013-09-16 16:53:00
1:53 PM,90.0,73.0,57,30.01,10.0,East,6.9,-,N/A,,Clear,80,2013-09-16 17:53:00
2:53 PM,91.0,72.0,53,30.01,10.0,ESE,9.2,-,N/A,,Scattered Clouds,110,2013-09-16 18:53:00
3:53 PM,90.0,69.1,50,29.99,10.0,ESE,12.7,20.7,N/A,,Scattered Clouds,110,2013-09-16 19:53:00
4:15 PM,89.6,71.6,55,29.98,10.0,SE,3.5,-,0.00,Rain-Thunderstorm,Light Rain,130,2013-09-16 20:15:00
4:53 PM,79.0,73.0,82,30.00,10.0,SE,8.1,21.9,0.01,Rain-Thunderstorm,Light Thunderstorms and Rain,140,2013-09-16 20:53:00
5:27 PM,78.8,73.4,83,30.02,10.0,South,6.9,-,0.00,Rain,Light Rain,190,2013-09-16 21:27:00
5:36 PM,78.8,73.4,83,30.02,10.0,SSW,9.2,-,0.00,Thunderstorm,Overcast,200,2013-09-16 21:36:00
5:53 PM,78.1,73.0,84,30.01,10.0,South,5.8,-,0.00,,Scattered Clouds,180,2013-09-16 21:53:00
6:53 PM,78.1,73.9,87,30.02,10.0,Calm,Calm,-,N/A,,Clear,0,2013-09-16 22:53:00
7:53 PM,79.0,72.0,79,30.00,10.0,Calm,Calm,-,N/A,,Clear,0,2013-09-16 23:53:00
8:53 PM,79.0,72.0,79,30.01,10.0,East,4.6,-,N/A,,Clear,90,2013-09-17 00:53:00
9:53 PM,79.0,71.1,77,30.04,10.0,East,6.9,-,N/A,,Clear,80,2013-09-17 01:53:00
10:53 PM,78.1,72.0,81,30.04,10.0,East,5.8,-,N/A,,Clear,100,2013-09-17 02:53:00
11:53 PM,77.0,72.0,84,30.04,10.0,East,5.8,-,N/A,,Clear,100,2013-09-17 03:53:00